Regional Weather Roundup
Issued by NWS Little Rock, AR

Home | Current Version | Previous Version | Text Only | Print | Product List | Glossary Off
Versions: 1 2 3 4 5 6 7 8 9 10 11 12 13 14 15 16 17 18 19 20 21 22 23 24 25 26 27 28 29 30 31 32 33 34 35 36 37 38 39 40 41 42 43 44 45 46 47 48 49 50

000
ASUS44 KLZK 230405
RWRLZK

WEATHER ROUNDUP FOR ARKANSAS
NATIONAL WEATHER SERVICE LITTLE ROCK AR
1100 PM CDT FRI MAY 22 2015

NOTE: "FAIR" INDICATES FEW OR NO CLOUDS BELOW 12,000 FEET WITH NO
SIGNIFICANT WEATHER AND/OR OBSTRUCTIONS TO VISIBILITY.

ARZ001-003-010-029-230500-
NORTHWEST ARKANSAS

CITY           SKY/WX    TMP DP  RH WIND       PRES   REMARKS
FAYETTEVILLE   PTCLDY    54  52  93 CALM      30.22R
FORT SMITH     CLOUDY    60  55  83 E7        30.20R
HARRISON       PTCLDY    57  49  74 SE9       30.24R
BENTONVILLE    PTCLDY   N/A N/A N/A SE5       30.21S
ROGERS         MOCLDY    59  50  72 SE6       30.23R
SILOAM SPGS    MOCLDY    55  46  71 SE6       30.23R
HIGHFILL       CLOUDY    59  51  75 SE5       30.22R
$$

ARZ004-005-016-230500-
NORTH CENTRAL ARKANSAS

CITY           SKY/WX    TMP DP  RH WIND       PRES   REMARKS
BATESVILLE     CLOUDY    63  52  67 CALM      30.23F
FLIPPIN        PTCLDY    59  48  67 CALM      30.22R
MTN HOME       PTCLDY    57  48  72 E3        30.23S
$$

ARZ040-041-230500-
WEST CENTRAL ARKANSAS

CITY           SKY/WX    TMP DP  RH WIND       PRES   REMARKS
MENA           CLOUDY    61  59  94 CALM      30.21S
MOUNT IDA      CLOUDY    59  58  96 CALM      30.18S
$$

ARZ009-017-025-026-028-230500-
NORTHEAST ARKANSAS

CITY           SKY/WX    TMP DP  RH WIND       PRES   REMARKS
CORNING          N/A     63  57  82 E5        30.25F
JONESBORO      PTCLDY    56  54  93 NE5       30.24S
NEWPORT        CLOUDY    64  56  75 E8        30.23F
WALNUT RIDGE   MOCLDY    63  52  67 E6        30.24F
BLYTHEVILLE    CLEAR     60  55  83 CALM      30.25S
$$

ARZ022-023-033-042-044-230500-
CENTRAL ARKANSAS

CITY           SKY/WX    TMP DP  RH WIND       PRES   REMARKS
LITTLE ROCK    CLOUDY    66  53  63 SE5       30.21R
N LITTLE ROCK  MOCLDY    63  58  86 E5        30.21R
JACKSONVILLE   CLOUDY    63  57  81 NE2       30.21R
HOT SPRINGS    LGT RAIN  60  58  92 SE3       30.21R
RUSSELLVILLE   CLOUDY    61  57  87 CALM      30.23R
CLINTON        FAIR      57  54  88 CALM      30.25R
$$

ARZ036-230500-
EAST ARKANSAS

CITY           SKY/WX    TMP DP  RH WIND       PRES   REMARKS
WEST MEMPHIS   CLEAR     62  54  74 NE5       30.23S
$$

ARZ050-053-066-070-073-230500-
SOUTHWEST ARKANSAS

CITY           SKY/WX    TMP DP  RH WIND       PRES   REMARKS
ARKADELPHIA    FAIR      64  62  93 N3        30.21R
CAMDEN         PTCLDY    64  54  68 CALM      30.20S
TEXARKANA      CLOUDY    67  57  70 SE5       30.18S
EL DORADO      CLEAR     63  57  81 E5        30.20F
DE QUEEN       MOCLDY    61  59  93 E5        30.17R
$$

ARZ056-057-069-230500-
SOUTHEAST ARKANSAS

CITY           SKY/WX    TMP DP  RH WIND       PRES   REMARKS
PINE BLUFF     CLOUDY    65  58  78 E6        30.20F
STUTTGART      CLOUDY    66  55  68 E7        30.21F
MONTICELLO     PTCLDY    63  58  83 CALM      30.21R

$$





USA.gov is the U.S. government's official web portal to all federal, state and local government web resources and services.